Tracking 28920 objects as of 24-May-2024
HD Live streaming from Space Station
objects crossing your sky now

STARLINK-3984

Track STARLINK-3984 now!
10-day predictions
STARLINK-3984 is classified as:


NORAD ID: 52621
Int'l Code: 2022-052Z
Perigee: 546.2 km
Apogee: 547.5 km
Inclination: 53.2 °
Period: 95.4 minutes
Semi major axis: 6917 km
RCS: Unknown
Launch date: May 14, 2022
Source: United States (US)
Launch site: AIR FORCE EASTERN TEST RANGE (AFETR)
Your satellite tracking list
Your tracking list is empty




NASA's NSSDC Master Catalog

Two Line Element Set (TLE):
1 52621U 22052Z   24144.88466861  .00008128  00000-0  52797-3 0  9991
2 52621  53.2173 328.6527 0000892  85.9035 274.2059 15.08854777112512
Source of the keplerian elements: AFSPC